SCP
0 0 0 0 0 0 0 0 0 0 0 0 0 0 0 0 0 0 0 0 0 0 0 0 0 0 0 0 0 0 0 0 0 0 0 0 0 0 0 0 0 0 0
0 0 0 0 0 0 0 0 0 0 0 0 0 0 0 0 0 0 0 0 0 0 0 0 0 0 0 0 0 0 0 0 0 0 0 0 0 0 0 0 0 0 0
0 0 0 0 0 0 0 0 0 0 0 0 0 0 0 0 0 0 0 0 0 0 0 0 0 0 0 0 0 0 0 0 0 0 0 0 0 0 0 0 0 0 0
0 0 0 0 0 0 0 0 0 0 0 0 0 0 0 0 0 0 0 0 0 0 0 0 0 0 0 0 0 0 0 0 0 0 0 0 0 0 0 0 0 0 0
0 0 0 0 0 0 0 0 0 0 0 0 0 0 0 0 0 0 0 0 0 0 0 0 0 0 0 0 0 0 0 0 0 0 0 0 0 0 0 0 0 0 0
0 0 0 0 0 0 0 0 0 0 0 0 0 0 0 0 0 0 0 0 0 0 0 0 0 0 0 0 0 0 0 0 0 0 0 0 0 0 0 0 0 0 0
0 0 0 0 0 0 0 0 0 0 0 0 0 0 0 0 0 0 0 0 0 0 0 0 0 0 0 0 0 0 0 0 0 0 0 0 0 0 0 0 0 0 0
0 0 0 0 0 0 0 0 0 0 0 0 0 0 0 0 0 0 0 0 0 0 0 0 0 0 0 0 0 0 0 0 0 0 0 0 0 0 0 0 0 0 0
0 0 0 0 0 0 0 0 0 0 0 0 0 0 0 0 0 0 0 0 0 0 0 0 0 0 0 0 0 0 0 0 0 0 0 0 0 0 0 0 0 0 0
0 0 0 0 0 0 0 0 0 0 0 0 0 0 0 0 0 0 0 0 0 0 0 0 0 0 0 0 0 0 0 0 0 0 0 0 0 0 0 0 0 0 0
0 0 0 0 0 0 0 0 0 0 0 0 0 0 0 0 0 0 0 0 0 0 0 0 0 0 0 0 0 0 0 0 0 0 0 0 0 0 0 0 0 0 0
0 0 0 0 0 0 0 0 0 0 0 0 0 0 0 0 0 0 0 0 0 0 0 0 0 0 0 0 0 0 0 0 0 0 0 0 0 0 0 0 0 0 0
0 0 0 0 0 0 0 0 0 0 0 0 0 0 0 0 0 0 0 0 0 0 0 0 0 0 0 0 0 0 0 0 0 0 0 0 0 0 0 0 0 0 0
0 0 0 0 0 0 0 0 0 0 0 0 0 0 0 0 0 0 0 0 0 0 0 0 0 0 0 0 0 0 0 0 0 0 0 0 0 0 0 0 0 0 0
0 0 0 0 0 0 0 0 0 0 0 0 0 0 0 0 0 0 0 0 0 0 0 0 0 0 0 0 0 0 0 0 0 0 0 0 0 0 0 0 0 0 0
0 0 0 0 0 0 0 0 0 0 0 0 0 0 0 0 0 0 0 0 0 0 0 0 0 0 0 0 0 0 0 0 0 0 0 0 0 0 0 0 0 0 0
0 0 0 0 0 0 0 0 0 0 0 0 0 0 0 0 0 0 0 0 0 0 0 0 0 0 0 0 0 0 0 0 0 0 0 0 0 0 0 0 0 0 0
0 0 0 0 0 0 0 0 0 0 0 0 0 0 0 0 0 0 0 0 0 0 0 0 0 0 0 0 0 0 0 0 0 0 0 0 0 0 0 0 0 0 0
0 0 0 0 0 0 0 0 0 0 0 0 0 0 0 0 0 0 0 0 0 0 0 0 0 0 0 0 0 0 0 0 0 0 0 0 0 0 0 0 0 0 0
0 0 0 0 0 0 0 0 0 0 0 0 0 0 0 0 0 0 0 0 0 0 0 0 0 0 0 0 0 0 0 0 0 0 0 0 0 0 0 0 0 0 0
0 0 0 0 0 0 0 0 0 0 0 0 0 0 0 0 0 0 0 0 0 0 0 0 0 0 0 0 0 0 0 0 0 0 0 0 0 0 0 0 0 0 0
0 0 0 0 0 0 0 0 0 0 0 0 0 0 0 0 0 0 0 0 0 0 0 0 0 0 0 0 0 0 0 0 0 0 0 0 0 0 0 0 0 0 0
0 0 0 0 0 0 0 0 0 0 0 0 0 0 0 0 0 0 0 0 0 0 0 0 0 0 0 0 0 0 0 0 0 0 0 0 0 0 0 0 0 0 0
0 0 0 0 0 0 0 0 0 0 0 0 0 0 0 0 0 0 0 0 0 0 0 0 0 0 0 0 0 0 0 0 0 0 0 0 0 0 0 0 0 0 0
0 0 0 0 0 0 0 0 0 0 0 0 0 0 0 0 0 0 0 0 0 0 0 0 0 0 0 0 0 0 0 0 0 0 0 0 0 0 0 0 0 0 0
0 0 0 0 0 0 0 0 0 0 0 0 0 0 0 0 0 0 0 0 0 0 0 0 0 0 0 0 0 0 0 0 0 0 0 0 0 0 0 0 0 0 0
Wind_Speed
11 14 16 15 14 13 13 12 12 12 12 12 12 12 12 12 12 12 13 13 14 14 15 15 15 15 16 16 16 16 17 17 17 17 17 17 17 17 17 16 14 13 18
15 16 17 16 15 14 13 13 12 12 12 12 12 12 12 12 12 12 12 13 13 14 14 14 14 15 15 15 15 16 16 16 16 15 15 15 16 16 16 16 16 12 16
17 16 17 16 15 14 14 13 13 12 12 12 12 12 12 11 11 11 12 12 13 13 13 13 14 14 14 14 15 15 15 14 14 13 12 10 12 15 15 15 15 15 15
17 16 16 17 16 15 14 14 13 13 12 12 12 12 12 11 11 11 12 12 12 13 13 12 13 13 13 14 13 14 14 13 13 10 9 10 10 14 14 14 14 14 14
16 15 15 17 16 15 15 14 13 13 12 12 12 12 12 11 11 11 11 11 12 12 12 12 12 12 12 12 12 13 12 11 10 9 9 9 9 12 12 12 12 12 12
17 15 16 17 17 16 15 14 13 13 12 12 12 12 11 11 11 11 11 11 11 11 11 11 11 11 11 11 11 11 11 9 6 8 8 8 8 10 10 10 10 10 10
17 15 16 17 17 16 15 14 13 13 13 13 12 12 11 11 10 10 10 10 10 10 10 10 10 10 10 10 10 10 10 8 6 6 6 7 8 9 9 8 8 8 8
16 15 15 17 16 16 15 14 14 13 13 13 12 12 11 11 10 10 9 9 9 9 9 9 9 9 9 9 9 9 8 6 5 6 6 6 8 8 8 7 7 7 6
15 14 14 15 15 15 15 14 14 13 13 13 13 12 11 10 9 9 8 8 7 7 7 7 7 7 8 8 8 7 7 5 4 4 5 4 8 8 8 7 6 6 6
14 14 13 14 14 14 13 13 13 13 13 13 13 12 11 10 9 8 7 7 6 6 5 5 5 6 6 6 6 5 3 3 4 3 3 4 8 9 9 8 8 8 7
14 14 13 14 13 13 12 12 13 12 12 12 11 12 10 7 7 7 6 6 4 4 3 4 4 4 3 3 3 2 3 2 3 3 3 6 8 9 10 9 9 9 9
17 16 14 14 13 13 10 10 9 9 10 9 9 10 7 6 4 4 7 5 3 3 2 2 2 2 2 0 2 3 2 3 3 2 3 5 9 10 10 10 10 10 11
17 16 15 14 14 13 9 9 6 6 7 8 9 9 6 5 4 4 4 5 4 4 3 3 3 1 1 2 3 3 4 4 3 3 3 5 9 10 11 12 12 12 12
17 17 16 15 13 13 11 9 8 7 6 6 8 9 7 4 4 4 3 3 3 2 2 2 2 2 3 3 4 4 5 4 4 4 3 5 9 10 12 12 12 12 12
17 17 17 16 15 13 11 9 9 8 8 8 7 8 8 6 5 5 4 3 3 3 3 3 3 3 4 4 4 5 6 6 6 6 4 4 7 9 11 12 12 12 12
17 18 17 18 16 15 12 11 9 9 8 8 7 9 9 6 6 5 5 4 4 3 3 3 4 4 4 4 6 6 7 7 7 7 6 4 4 6 8 9 9 9 10
17 17 18 18 17 16 15 13 9 9 9 8 8 9 9 8 7 5 4 4 4 4 4 4 4 4 4 5 6 7 6 7 7 7 6 4 3 1 3 6 7 8 9
15 17 17 15 17 17 15 13 9 9 9 8 7 8 10 9 8 6 5 4 4 3 3 4 4 4 4 5 5 5 6 6 7 6 5 3 2 1 2 5 6 8 9
16 17 17 18 18 17 15 12 10 9 9 7 7 7 8 8 8 6 5 4 5 4 3 3 4 4 5 5 5 6 6 6 5 4 3 1 1 1 2 2 3 5 9
15 16 17 18 18 16 13 10 8 8 8 7 7 7 9 7 8 7 5 5 5 4 4 4 4 3 4 4 6 6 6 5 3 2 1 1 1 1 2 3 4 3 6
14 16 17 18 17 15 12 11 10 9 8 7 6 8 9 8 8 7 5 5 5 4 4 4 3 4 3 3 5 5 4 3 3 1 2 2 2 2 3 5 5 6 6
16 17 17 18 18 17 13 12 9 9 7 6 6 7 8 8 8 6 7 5 5 4 4 4 3 3 2 2 3 4 4 2 1 2 3 4 4 4 5 6 7 8 8
16 17 15 18 18 18 16 11 8 7 5 5 7 6 8 8 8 8 7 6 5 5 4 4 3 4 3 1 2 3 3 3 5 3 4 4 5 5 6 7 8 9 9
15 14 16 17 17 17 16 14 15 11 10 9 8 7 8 8 8 7 7 6 6 4 4 4 4 3 3 2 2 2 3 3 4 5 4 4 6 8 8 7 8 8 8
14 13 14 16 17 17 17 16 16 13 10 8 9 10 9 7 7 7 7 7 6 5 5 4 4 4 3 3 2 2 3 3 5 5 7 7 6 6 7 8 8 7 7
12 12 13 15 16 16 17 17 17 16 13 13 12 11 8 6 6 8 7 7 6 5 5 5 4 4 3 4 3 3 4 4 4 5 7 9 9 7 8 7 7 7 6
Wind_Direction
163 161 163 159 155 151 146 137 126 120 116 112 104 99 92 87 82 77 75 73 72 70 68 67 66 65 63 63 61 60 59 57 55 53 53 55 56 56 53 49 46 49 47
156 160 160 159 157 155 148 139 132 125 121 115 107 101 95 90 84 80 77 73 72 71 69 67 66 66 66 64 63 62 62 60 56 54 52 56 55 55 54 50 49 49 48
154 157 160 161 159 156 149 141 135 131 126 118 111 104 99 93 87 83 79 75 73 72 71 69 67 66 66 66 65 64 63 60 56 53 54 53 55 53 53 51 51 50 49
155 158 161 159 159 156 151 145 138 135 129 121 116 109 103 97 92 87 82 79 76 74 72 71 70 67 66 65 65 65 63 59 53 49 53 49 51 52 51 49 49 48 47
157 160 154 160 159 157 151 145 142 139 133 127 120 114 107 101 96 91 87 83 80 78 75 72 70 68 66 65 65 64 61 56 54 54 53 48 49 49 48 47 45 45 44
159 161 156 165 161 158 152 149 146 143 137 133 126 117 111 106 100 95 92 88 84 81 79 75 72 69 66 64 63 61 57 47 49 53 45 39 40 42 43 41 40 40 39
160 161 159 166 163 159 156 154 150 147 143 138 131 123 117 112 107 103 98 93 88 84 81 78 75 70 66 63 61 59 53 40 41 48 37 33 26 21 32 33 29 29 31
161 163 160 166 167 163 160 159 157 154 149 142 136 130 125 120 116 111 103 96 91 86 81 77 75 71 67 63 60 56 49 25 42 43 35 29 13 1 11 15 11 9 10
165 166 165 169 171 169 165 164 162 160 155 148 142 136 131 129 124 116 110 104 98 92 86 81 76 72 68 62 59 55 49 18 17 36 24 20 357 346 352 353 350 347 346
171 174 173 173 175 173 170 165 162 162 158 153 147 141 137 137 130 122 124 113 105 98 91 86 82 77 68 59 53 49 31 285 24 20 13 15 342 336 339 339 337 332 328
180 181 180 178 178 175 173 166 165 163 159 157 153 146 150 153 144 145 123 130 126 115 104 88 80 80 84 96 60 12 273 341 2 354 358 358 329 328 329 328 327 323 319
186 186 184 183 180 177 173 173 176 173 168 174 165 161 164 157 147 141 137 158 153 148 143 104 86 157 246 90 134 234 311 338 328 340 359 339 322 322 321 321 319 315 312
186 186 188 185 183 180 177 178 176 173 172 176 171 165 166 161 159 172 171 174 181 193 194 171 213 243 311 345 327 326 332 322 318 322 335 332 316 316 316 315 313 310 308
187 190 191 188 186 186 182 180 179 176 175 174 174 175 174 175 182 184 196 195 203 206 222 240 264 267 284 293 299 308 307 304 308 313 322 318 311 312 312 312 311 309 308
191 190 193 191 189 188 186 184 183 183 182 179 177 182 184 186 190 192 202 204 216 224 228 242 255 267 278 289 289 293 298 301 302 301 297 295 305 309 311 312 312 312 312
195 192 191 193 192 190 189 188 187 187 186 184 182 189 191 194 197 199 206 210 220 229 240 254 265 278 286 289 294 296 298 301 297 298 301 297 285 310 317 320 324 325 325
197 193 191 193 193 193 193 192 189 188 189 188 186 192 193 198 201 202 208 209 218 227 237 249 256 267 279 284 285 292 296 296 298 299 304 306 308 318 341 344 344 345 343
197 194 191 190 194 194 194 193 190 190 190 190 189 191 196 198 199 199 204 211 212 215 231 245 259 265 272 282 293 300 295 296 297 306 303 301 313 339 49 22 2 358 350
198 194 191 190 194 194 194 192 191 188 190 188 187 191 195 195 195 198 206 206 199 206 225 237 255 275 287 295 301 300 297 298 304 296 290 293 336 337 346 46 351 345 341
198 195 192 190 192 190 189 188 185 187 187 185 188 190 188 190 193 198 200 199 196 207 218 231 248 262 287 300 298 293 294 300 287 282 271 226 240 306 317 333 318 322 320
194 194 192 189 188 185 183 184 183 185 183 182 184 184 185 187 188 192 192 193 199 212 219 231 248 257 272 303 295 299 286 266 272 243 249 272 271 285 294 314 320 323 313
191 191 190 188 186 185 185 184 185 178 179 174 172 179 183 185 185 189 191 191 192 200 205 211 229 255 259 290 306 310 307 254 162 249 277 285 288 286 293 307 314 313 311
190 189 187 186 185 185 182 175 164 155 152 166 174 177 181 181 182 183 190 189 186 195 198 202 214 235 249 239 283 300 308 315 323 276 274 282 288 295 300 307 307 309 307
188 183 183 183 183 183 180 180 178 181 183 184 178 174 172 176 176 177 179 181 180 186 189 191 206 219 231 240 230 254 276 296 293 303 284 278 294 297 297 302 304 305 304
179 177 179 179 180 181 183 185 186 190 185 173 169 169 168 167 171 172 172 173 176 181 184 181 190 202 220 240 245 245 252 258 258 271 290 299 295 287 295 299 298 298 304
173 173 175 177 179 181 184 187 190 188 177 170 172 170 168 163 167 172 172 174 176 176 178 184 193 205 220 229 239 244 252 258 263 264 280 295 299 301 300 293 289 293 300